Flag for U.S.A. Weather past 2 weeks in Provincetown, Massachusetts, U.S.A.

Now
63 °F

Scattered clouds.


Feels Like: 63 °F
Forecast: 58 / 73 °F
Wind: 13 mph from Southwest

Location: Provincetown Weather Reporting Station

Current Time: May 30, 2015 at 9:21:40 AM

Latest Report: May 30, 2015 at 8:55 AM


Visibility: 10 mi

Pressure: 30.23 "Hg

Humidity: 94%

Dew point: 61 °F

Location of ProvincetownLocation

Historic Weather in Provincetown — Graph

°F

Provincetown temperature yesterday

Maximum temperature yesterday: 70 °F (at 3:35 PM)
Minimum temperature yesterday: 55 °F (at 3:55 AM)
Average temperature yesterday: 61 °F

Past Weeks' High & Low Weather Summary

 TemperatureHumidityPressure
High72 °F (May 25, 11:55 AM)94% (May 17, 1:35 AM)30.34 "Hg (May 17, 1:35 AM)
Low46 °F (May 23, 12:15 AM)31% (May 23, 2:55 PM)29.67 "Hg (May 20, 12:55 AM)
Average59 °F72%30.12 "Hg
* Reported May 15 8:15 AM — May 30 8:15 AM, Provincetown, Weather by CustomWeather, © 2015

Note: Actual official high and low records may vary slightly from our data, if they occured in-between our weather recording intervals... More about our weather records

Advertising

Provincetown weather history for previous 24 hours

 ConditionsComfort  
Time TempWeatherWind HumidityBarometerVisibility
8:15 AM
Sat, May 30
61 °FLow clouds.12 mph94%30.23 "Hg0 mi
7:55 AM61 °FLow clouds.12 mph88%30.23 "Hg0 mi
7:35 AM61 °FLow clouds.10 mph88%30.24 "Hg0 mi
7:15 AM61 °FLow clouds.12 mph88%30.24 "Hg0 mi
6:55 AM61 °FLow clouds.13 mph88%30.24 "Hg0 mi
6:35 AM61 °FLow clouds.13 mph83%30.24 "Hg0 mi
6:15 AM61 °FLow clouds.12 mph88%30.24 "Hg0 mi
5:55 AM61 °FLow clouds.10 mph88%30.23 "Hg0 mi
5:35 AM61 °FLow clouds.12 mph88%30.22 "Hg0 mi
5:15 AM61 °FLow clouds.10 mph88%30.21 "Hg0 mi
4:55 AM61 °FLow clouds.10 mph88%30.21 "Hg1 mi
4:35 AM61 °FLow clouds.9 mph88%30.21 "Hg1 mi
4:15 AM61 °FLow clouds.10 mph88%30.22 "Hg1 mi
3:55 AM59 °FLow clouds.10 mph88%30.22 "Hg1 mi
3:35 AM59 °FLow clouds.12 mph88%30.21 "Hg1 mi
3:15 AM57 °FLow clouds.10 mph94%30.21 "Hg1 mi
2:55 AM57 °FLow clouds.10 mph94%30.22 "Hg1 mi
2:35 AM57 °FLow clouds.9 mph94%30.22 "Hg1 mi
2:15 AM57 °FLow clouds.7 mph94%30.22 "Hg2 mi
1:55 AM57 °FLow clouds.8 mph94%30.22 "Hg1 mi
1:35 AM57 °FClear.7 mph94%30.23 "Hg10 mi
1:15 AM57 °FClear.5 mph88%30.24 "Hg10 mi
12:55 AM59 °FClear.3 mph82%30.24 "Hg10 mi
12:35 AM59 °FClear.5 mph88%30.24 "Hg10 mi
12:15 AM59 °FClear.6 mph88%30.25 "Hg10 mi
11:55 PM
Fri, May 29
59 °FClear.6 mph88%30.25 "Hg10 mi
11:35 PM61 °FClear.6 mph83%30.25 "Hg10 mi
10:55 PM61 °FClear.5 mph83%30.25 "Hg10 mi
10:35 PM61 °FClear.3 mph83%30.26 "Hg10 mi
10:15 PM61 °FClear.7 mph83%30.26 "Hg10 mi
9:55 PM59 °FClear.6 mph88%30.26 "Hg10 mi
9:35 PM59 °FClear.6 mph88%30.26 "Hg10 mi
9:15 PM57 °FClear.6 mph82%30.27 "Hg10 mi
8:55 PM55 °FSunny.No wind88%30.27 "Hg10 mi
8:35 PM55 °FSunny.3 mph88%30.27 "Hg10 mi
8:15 PM55 °FSunny.3 mph88%30.27 "Hg10 mi
7:55 PM57 °FSunny.5 mph82%30.27 "Hg10 mi
7:35 PM59 °FSunny.6 mph82%30.27 "Hg10 mi
7:15 PM61 °FSunny.5 mph77%30.27 "Hg10 mi
6:55 PM63 °FSunny.6 mph77%30.27 "Hg10 mi
6:35 PM63 °FSunny.7 mph77%30.26 "Hg10 mi
6:15 PM63 °FSunny.8 mph73%30.26 "Hg10 mi
5:55 PM64 °FSunny.8 mph73%30.26 "Hg10 mi
5:35 PM64 °FSunny.7 mph73%30.27 "Hg10 mi
5:15 PM64 °FSunny.6 mph73%30.28 "Hg10 mi
4:35 PM64 °FSunny.8 mph73%30.29 "Hg10 mi
4:15 PM66 °FSunny.7 mph68%30.28 "Hg10 mi
3:55 PM68 °FSunny.7 mph69%30.28 "Hg10 mi
3:35 PM70 °FSunny.7 mph64%30.29 "Hg10 mi
3:15 PM66 °FSunny.7 mph73%30.29 "Hg10 mi
2:55 PM64 °FSunny.9 mph73%30.30 "Hg10 mi
2:35 PM66 °FSunny.8 mph73%30.30 "Hg10 mi
2:15 PM64 °FPassing clouds.9 mph73%30.30 "Hg10 mi
1:55 PM64 °FPartly sunny.10 mph73%30.30 "Hg10 mi
1:35 PM63 °FPartly sunny.10 mph77%30.31 "Hg10 mi
1:15 PM64 °FPartly sunny.9 mph73%30.31 "Hg10 mi
12:55 PM64 °FLow clouds.10 mph73%30.31 "Hg10 mi
12:35 PM63 °FLow clouds.9 mph77%30.31 "Hg1 mi
12:15 PM63 °FLow clouds.10 mph77%30.31 "Hg1 mi
11:55 AM63 °FPartly sunny.12 mph77%30.32 "Hg10 mi
11:35 AM63 °FSunny.8 mph73%30.31 "Hg10 mi
11:15 AM63 °FSunny.8 mph73%30.31 "Hg10 mi
10:55 AM63 °FSunny.7 mph73%30.31 "Hg10 mi
10:35 AM63 °FSunny.7 mph73%30.31 "Hg10 mi
10:15 AM63 °FSunny.9 mph73%30.31 "Hg10 mi
9:55 AM63 °FSunny.6 mph73%30.30 "Hg10 mi
9:35 AM63 °FSunny.7 mph73%30.30 "Hg10 mi
9:15 AM63 °FSunny.6 mph73%30.30 "Hg10 mi
Weather by CustomWeather, © 2015

See weather overviewHow to use our weather pages